Regional Weather Roundup
Issued by NWS

Home | Current Version | Previous Version | Graphics & Text | Print | Product List | Glossary On
Versions: 1 2 3 4 5 6 7 8 9 10 11 12 13 14 15 16 17 18 19 20 21 22 23 24 25 26 27 28 29 30 31 32 33 34 35 36 37 38 39 40 41 42 43 44 45 46 47 48 49 50
000
ASUS43 KLMK 172202
RWRKY
KENTUCKY REGIONAL WEATHER ROUNDUP
NATIONAL WEATHER SERVICE LOUISVILLE KY
500 PM EST WED DEC 17 2014

NOTE "FAIR" INDICATES FEW OR NO CLOUDS BELOW 12,000 FEET
WITH NO SIGNIFICANT WEATHER AND/OR OBSTRUCTIONS TO VISIBILITY.

KYZ001>023-026-027-061>063-070>075-172300-
WESTERN AND SOUTH CENTRAL KENTUCKY

CITY           SKY/WX    TMP DP  RH WIND       PRES   REMARKS
PADUCAH        PTCLDY    38  26  62 NW3       30.27S
HENDERSON      MOCLDY    36  25  64 N5        30.28F WCI  32
OWENSBORO      CLOUDY    35  27  73 NW9       30.30R WCI  28
HOPKINSVILLE   CLOUDY    39  27  62 N5        30.26R
BOWLING GREEN  MOCLDY    39  25  57 W5        30.26R
GLASGOW        NOT AVBL
$$

KYZ024-025-028>034-038-045-046-053-172300-
NORTH CENTRAL KENTUCKY

CITY           SKY/WX    TMP DP  RH WIND       PRES   REMARKS
LOUISVILLE/SDF CLOUDY    35  25  66 W9        30.28R WCI  28
LOUISVILLE/LOU CLOUDY    34  24  67 W10       30.28R WCI  26
FORT KNOX      CLOUDY    34  26  74 NW6       30.25R WCI  29
$$

KYZ035>037-039>044-047>052-055>060-089>105-172300-
NORTHEAST KENTUCKY

CITY           SKY/WX    TMP DP  RH WIND       PRES   REMARKS
LEXINGTON      CLOUDY    33  26  75 W9        30.23R WCI  25
COVINGTON      CLOUDY    30  22  72 W13       30.23R WCI  20
FRANKFORT      CLOUDY    33  25  72 NW8       30.24R WCI  26
$$

KYZ054-064>069-076>088-106>120-172300-
SOUTHEAST KENTUCKY

CITY           SKY/WX    TMP DP  RH WIND       PRES   REMARKS
JACKSON        CLEAR     35  27  72 NW6       30.16F WCI  30
LONDON         CLEAR     38  27  64 W7        30.20R WCI  33
SOMERSET       NOT AVBL
MIDDLESBORO    NOT AVBL
MONTICELLO     PTCLDY    37  30  76 CALM      30.24F
$$



USA.gov is the U.S. government's official web portal to all federal, state and local government web resources and services.